Home > Weather > Strausberg > Past weeks

Flag for Germany Weather for the Past 2 Weeks in Strausberg, Brandenburg, Germany

Now
46 °F

Light rain. Passing clouds.


Feels Like: 39 °F
Forecast: 38 / 46 °F
Wind: 17 mph from South

Location: Berlin-Schoenefeld

Current Time: Feb 9, 2016 at 10:10:11 PM

Latest Report: Feb 9, 2016 at 9:20 PM


Visibility: N/A

Pressure: 28.97 "Hg

Humidity: 87%

Dew point: 43 °F

Location of StrausbergLocation

Historic Weather in Strausberg — Graph

°F

Strausberg Temperature Yesterday

Maximum temperature yesterday: 52 °F (at 3:20 PM)
Minimum temperature yesterday: 41 °F (at 3:50 AM)
Average temperature yesterday: 46 °F

High & Low Weather Summary for the Past Weeks

 TemperatureHumidityPressure
High54 °F (Jan 27, 11:50 AM)100% (Jan 25, 8:20 PM)30.27 "Hg (Jan 25, 8:20 PM)
Low30 °F (Feb 5, 2:50 AM)47% (Feb 2, 1:20 PM)29.00 "Hg (Feb 9, 8:50 PM)
Average44 °F79%29.86 "Hg
* Reported Jan 25 8:20 PM — Feb 9 8:50 PM, Strausberg, Weather by CustomWeather, © 2016

Note: Actual official high and low records may vary slightly from our data, if they occured in-between our weather recording intervals... More about our weather records

Advertising

Strausberg Weather History for the Previous 24 Hours

 ConditionsComfort  
Time TempWeatherWind HumidityBarometerVisibility
8:50 PM
Tue, Feb 9
46 °FLight rain. Passing clouds.15 mph87%29.00 "HgN/A
8:20 PM45 °FLight rain. Partly cloudy.14 mph93%29.03 "HgN/A
7:50 PM45 °FLight rain. Passing clouds.15 mph93%29.06 "HgN/A
7:20 PM45 °FLight rain. Clear.15 mph87%29.06 "HgN/A
6:50 PM45 °FLight rain. Passing clouds.15 mph87%29.09 "HgN/A
6:20 PM43 °FLight rain. Partly cloudy.15 mph93%29.12 "HgN/A
5:50 PM43 °FLight rain. Partly cloudy.15 mph93%29.15 "HgN/A
5:20 PM43 °FLight rain. Passing clouds.15 mph93%29.18 "Hg5 mi
4:50 PM45 °FLight rain. Partly sunny.18 mph81%29.21 "HgN/A
4:20 PM46 °FLight rain. More clouds than sun.15 mph71%29.24 "HgN/A
3:20 PM46 °FOvercast.12 mph66%29.27 "HgN/A
2:50 PM48 °FOvercast.15 mph62%29.30 "HgN/A
2:20 PM48 °FPartly sunny.14 mph62%29.33 "HgN/A
1:50 PM48 °FPartly sunny.12 mph62%29.33 "HgN/A
1:20 PM48 °FPartly sunny.14 mph62%29.36 "HgN/A
12:50 PM48 °FPartly sunny.15 mph62%29.36 "HgN/A
12:20 PM48 °FBroken clouds.23 mph62%29.39 "HgN/A
11:20 AM48 °FPartly sunny.23 mph62%29.42 "HgN/A
10:50 AM48 °FPartly sunny.21 mph58%29.45 "HgN/A
10:20 AM48 °FSunny.21 mph58%29.45 "Hg10 mi
9:50 AM46 °FSunny.21 mph62%29.42 "Hg10 mi
9:20 AM46 °FSunny.20 mph62%29.42 "Hg10 mi
8:50 AM45 °FSunny.16 mph66%29.42 "Hg10 mi
8:20 AM45 °FSunny.16 mph61%29.45 "Hg10 mi
7:50 AM45 °FSunny.21 mph61%29.45 "Hg10 mi
7:20 AM46 °FClear.18 mph57%29.42 "Hg10 mi
6:50 AM46 °FClear.23 mph57%29.42 "Hg10 mi
6:20 AM46 °FClear.22 mph57%29.42 "Hg10 mi
5:50 AM46 °FClear.22 mph57%29.39 "Hg10 mi
5:20 AM46 °FPassing clouds.24 mph62%29.39 "HgN/A
4:50 AM46 °FPassing clouds.23 mph62%29.39 "HgN/A
4:20 AM46 °FPassing clouds.26 mph62%29.39 "HgN/A
3:50 AM46 °FPassing clouds.24 mph62%29.39 "HgN/A
3:20 AM45 °FLight rain. Partly cloudy.23 mph66%29.39 "HgN/A
2:50 AM45 °FClear.22 mph66%29.39 "Hg10 mi
2:20 AM45 °FPassing clouds.21 mph66%29.39 "HgN/A
1:50 AM45 °FClear.20 mph66%29.39 "Hg10 mi
1:20 AM45 °FClear.21 mph66%29.39 "Hg10 mi
12:50 AM45 °FClear.21 mph66%29.39 "Hg10 mi
12:20 AM45 °FPassing clouds.22 mph71%29.39 "HgN/A
11:50 PM
Mon, Feb 8
45 °FClear.21 mph71%29.39 "Hg10 mi
11:20 PM45 °FClear.20 mph71%29.39 "Hg10 mi
10:50 PM45 °FClear.21 mph71%29.39 "Hg10 mi
10:20 PM45 °FClear.17 mph76%29.39 "Hg10 mi
Weather by CustomWeather, © 2016

See weather overviewHow to use our weather pages